Sharm El Sheikh, Egypt

1:44 AM EET on December 05, 2016 (GMT +0200)
Sharm El Sheikh

Weather History for HESH - March, 2013

Change the Weather History Date:

Thursday, March 7, 2013

  Actual Average (HEGN) Record (HEGN)
Temperature  
Mean Temperature 71 °F -  
Max Temperature 82 °F 76 °F 92 °F (2014)
Min Temperature 60 °F 58 °F 53 °F (2006)
Cooling Degree Days 6    
Growing Degree Days 21 (Base 50)    
Moisture  
Dew Point 36 °F    
Average Humidity 32    
Maximum Humidity 55    
Minimum Humidity 13    
Precipitation  
Precipitation 0.00 in - - ()
Sea Level Pressure  
Sea Level Pressure 30.02 in    
Wind  
Wind Speed 9 mph ()    
Max Wind Speed 14 mph    
Max Gust Speed -    
Averages and records for this station are not official NWS values.
T = Trace of Precipitation, MM = Missing Value Source: Averaged Metar Reports

Daily Weather History Graph

Daily Weather History Graph

Search for Another Location

Airport or City:

Trip Planner

Search our weather history database for the weather conditions in past years. The results will help you decide how hot, cold, wet, or windy it might be!

Date:

Astronomy

Mar. 07, 2013 Rise Set
Actual Time 6:00 AM EET 5:46 PM EET
Civil Twilight 5:37 AM EET 6:09 PM EET
Nautical Twilight 5:10 AM EET 6:37 PM EET
Astronomical Twilight 4:43 AM EET 7:04 PM EET
Moon 2:24 AM EET (3/7) 1:29 PM EET (3/7)
Length of Visible Light 12h 32m
Length of Day
11h 45m
Waning Crescent, 23% of the Moon is Illuminated
Mar 7
Waning Crescent
Mar 11
New
Mar 19
First Quarter
Mar 27
Full
Apr 3
Last Quarter

Hourly Weather History & Observations

Time (EET) Temp. Dew Point Humidity Pressure Visibility Wind Dir Wind Speed Gust Speed Precip Events Conditions
12:00 AM 64.4 °F 39.2 °F 40% 30.04 in - North 10.4 mph - N/A   Clear
1:00 AM 62.6 °F 32.0 °F 32% 30.04 in - North 11.5 mph - N/A   Clear
2:00 AM 62.6 °F 35.6 °F 37% 30.04 in - North 10.4 mph - N/A   Clear
3:00 AM 62.6 °F 35.6 °F 37% 30.04 in - North 12.7 mph - N/A   Clear
4:00 AM 60.8 °F 37.4 °F 42% 30.04 in - North 13.8 mph - N/A   Clear
5:00 AM 60.8 °F 37.4 °F 42% 30.04 in - North 13.8 mph - N/A   Clear
6:00 AM 60.8 °F 37.4 °F 42% 30.04 in - North 12.7 mph - N/A   Clear
7:00 AM 62.6 °F 39.2 °F 42% 30.06 in - North 12.7 mph - N/A   Clear
8:00 AM 66.2 °F 37.4 °F 35% 30.06 in - North 12.7 mph - N/A   Clear
9:00 AM 69.8 °F 37.4 °F 31% 30.06 in - NNE 13.8 mph - N/A   Clear
10:00 AM 73.4 °F 39.2 °F 29% 30.09 in - NNE 11.5 mph - N/A   Clear
11:00 AM 75.2 °F 37.4 °F 25% 30.06 in - NNE 11.5 mph - N/A   Clear
1:00 PM 80.6 °F 35.6 °F 20% 30.01 in - NNE 9.2 mph - N/A   Clear
2:00 PM 80.6 °F 35.6 °F 20% 29.98 in - NE 6.9 mph - N/A   Clear
3:00 PM 78.8 °F 30.2 °F 17% 29.98 in - Variable 3.5 mph - N/A   Clear
4:00 PM 82.4 °F 26.6 °F 13% 30.04 in - Variable 3.5 mph - N/A   Clear
5:00 PM 82.4 °F 26.6 °F 13% 29.98 in - South 4.6 mph - N/A   Clear
6:00 PM 73.4 °F 24.8 °F 16% 29.98 in - WSW 2.3 mph - N/A   Clear
7:00 PM 71.6 °F 32.0 °F 23% 29.95 in - Variable 3.5 mph - N/A   Clear
8:00 PM 68.0 °F 33.8 °F 28% 29.98 in - Calm Calm - N/A   Clear
9:00 PM 64.4 °F 46.4 °F 52% 29.98 in - North 5.8 mph - N/A   Clear
10:00 PM 64.4 °F 44.6 °F 49% 29.98 in - North 5.8 mph - N/A   Clear
11:00 PM 62.6 °F 46.4 °F 55% 29.92 in - North 5.8 mph - N/A   Clear